Location: Clarion
(42.7316°N, 93.7330°W)
Time: 08:23:11
(UTC+00:00)

Terra - Pass Details

Date: 22 April 2026
Orbit: 688 x 691 km, 97.9° (Epoch: 17 May)

Event Time Altitude Azimuth Distance (km) Brightness Sun altitude
Exits shadow 01:27:27 - 120° (ESE) 2,519 4.0 -4.9°
Reaches altitude 10° 01:28:40 10° 111° (ESE) 2,138 3.6 -5.1°
Maximum altitude 01:32:03 20° 64° (ENE) 1,568 3.3 -5.6°
Drops below altitude 10° 01:35:26 10° 18° (NNE) 2,148 4.4 -6.2°
Sets 01:38:11 0° 2° (N) 3,069 5.4 -6.7°
